Regional Weather Roundup
Issued by NWS

Home | Current Version | Previous Version | Text Only | Print | Product List | Glossary On
Versions: 1 2 3 4 5 6 7 8 9 10 11 12 13 14 15 16 17 18 19 20 21 22 23 24 25 26 27 28 29 30 31 32 33 34 35 36 37 38 39 40 41 42 43 44 45 46 47 48 49 50
000
ASUS44 KBMX 262010
RWRAL

ALABAMA REGIONAL WEATHER ROUNDUP
NATIONAL WEATHER SERVICE BIRMINGHAM AL
200 PM CST SUN FEB 26 2017

NOTE: "FAIR" INDICATES FEW OR NO CLOUDS BELOW 12,000 FEET
WITH NO SIGNIFICANT WEATHER AND/OR OBSTRUCTIONS TO VISIBILITY.

THE REMARK "TC" DENOTES TEMPERATURE IN DEGREES CELSIUS.

ALZ001>011-014-016>018-020-262100-
NORTH ALABAMA

CITY           SKY/WX    TMP DP  RH WIND       PRES   REMARKS
MUSCLE SHOALS  SUNNY     58  21  24 SE10      30.16F
HUNTSVILLE     MOSUNNY   58  22  24 SE5       30.16F
DECATUR        SUNNY     56  26  31 VRB3      30.17F
HALEYVILLE     FAIR      59  23  25 S9        30.15F
GADSDEN        SUNNY     58  23  26 CALM      30.19F
$$

ALZ012-013-022-023-030>036-040>044-262100-
WEST CENTRAL ALABAMA

CITY           SKY/WX    TMP DP  RH WIND       PRES   REMARKS
TUSCALOOSA     SUNNY     63  21  20 SW5       30.16F
$$

ALZ015-024>027-033>036-040>044-262100-
CENTRAL ALABAMA

CITY           SKY/WX    TMP DP  RH WIND       PRES   REMARKS
BIRMINGHAM     SUNNY     61  19  19 VRB3      30.18F
MONTGOMERY     SUNNY     64  23  21 SE6       30.17F
SHELBY CO ARPT SUNNY     62  22  21 VRB5      30.16F
MAXWELL AFB    SUNNY     63  23  21 CALM      30.16F
GREENVILLE     FAIR      68  23  18 VRB3      30.15F
$$

ALZ019-021-028-029-037-038-045>048-262100-
EAST CENTRAL ALABAMA

CITY           SKY/WX    TMP DP  RH WIND       PRES   REMARKS
ANNISTON       SUNNY     63  15  15 CALM      30.17F
ALEXANDER CITY SUNNY     62  21  21 SW6       30.17F
AUBURN         SUNNY     63  21  20 VRB3      30.18F
$$

ALZ051>064-262100-
SOUTHWEST ALABAMA

CITY           SKY/WX    TMP DP  RH WIND       PRES   REMARKS
MOBILE         SUNNY     67  26  21 SE7       30.15F
BROOKLEY FIELD SUNNY     66  31  27 VRB3      30.17F
EVERGREEN      SUNNY     69  26  20 VRB3      30.15F
$$

ALZ049-050-065>069-262100-
SOUTHEAST ALABAMA

CITY           SKY/WX    TMP DP  RH WIND       PRES   REMARKS
DOTHAN         SUNNY     65  25  22 E6        30.20F
OZARK          SUNNY     66  27  23 E7        30.16F
TROY           SUNNY     67  24  19 E6        30.16F
EUFAULA        FAIR      68  20  16 VRB3      30.15F
$$



USA.gov is the U.S. government's official web portal to all federal, state and local government web resources and services.